TimeEDT,TemperatureF,Dew PointF,Humidity,Sea Level PressureIn,VisibilityMPH,Wind Direction,Wind SpeedMPH,Gust SpeedMPH,PrecipitationIn,Events,Conditions,WindDirDegrees,DateUTC
12:15 AM,53.1,40.1,61,29.59,10.0,SE,6.9,-,N/A,,Mostly Cloudy,140,2012-10-17 04:15:00
12:35 AM,53.1,40.1,61,29.58,10.0,SE,10.4,-,N/A,,Overcast,130,2012-10-17 04:35:00
12:55 AM,53.1,39.7,61,29.57,10.0,SSE,5.8,-,N/A,,Mostly Cloudy,160,2012-10-17 04:55:00
1:15 AM,53.1,39.7,61,29.57,10.0,SE,6.9,-,N/A,,Scattered Clouds,140,2012-10-17 05:15:00
1:35 AM,53.1,40.5,62,29.56,10.0,SE,5.8,-,N/A,Rain,Light Rain,140,2012-10-17 05:35:00
1:55 AM,54.5,41.7,62,29.56,10.0,SE,5.8,-,N/A,,Scattered Clouds,140,2012-10-17 05:55:00
2:15 AM,55.6,43.0,63,29.55,10.0,SSE,10.4,-,N/A,,Clear,160,2012-10-17 06:15:00
2:35 AM,55.6,43.0,63,29.54,10.0,SSE,11.5,-,N/A,,Clear,150,2012-10-17 06:35:00
2:55 AM,55.6,43.0,63,29.54,10.0,SSE,8.1,-,N/A,,Mostly Cloudy,150,2012-10-17 06:55:00
3:15 AM,55.6,44.1,65,29.54,10.0,SE,6.9,-,N/A,,Overcast,140,2012-10-17 07:15:00
3:35 AM,55.6,45.0,67,29.53,10.0,SSE,5.8,-,N/A,,Mostly Cloudy,150,2012-10-17 07:35:00
3:55 AM,55.8,45.3,68,29.52,10.0,South,8.1,-,N/A,,Scattered Clouds,180,2012-10-17 07:55:00
4:15 AM,58.1,47.7,68,29.51,10.0,South,10.4,17.3,N/A,,Mostly Cloudy,170,2012-10-17 08:15:00
4:35 AM,57.9,48.0,70,29.51,10.0,South,6.9,-,N/A,,Mostly Cloudy,170,2012-10-17 08:35:00
4:55 AM,57.6,48.4,71,29.51,10.0,SSE,6.9,-,N/A,,Mostly Cloudy,160,2012-10-17 08:55:00
5:15 AM,58.1,48.2,70,29.51,10.0,South,9.2,-,N/A,,Mostly Cloudy,180,2012-10-17 09:15:00
5:35 AM,59.4,48.6,67,29.51,10.0,South,12.7,17.3,N/A,,Scattered Clouds,190,2012-10-17 09:35:00
5:55 AM,60.8,48.6,64,29.50,10.0,South,13.8,19.6,N/A,,Scattered Clouds,190,2012-10-17 09:55:00
6:15 AM,60.8,48.4,64,29.50,10.0,South,16.1,21.9,N/A,,Scattered Clouds,190,2012-10-17 10:15:00
6:35 AM,59.4,47.8,66,29.50,10.0,South,11.5,-,N/A,,Scattered Clouds,190,2012-10-17 10:35:00
6:55 AM,59.4,47.7,65,29.50,10.0,South,11.5,20.7,N/A,,Clear,180,2012-10-17 10:55:00
7:15 AM,59.4,48.4,67,29.51,10.0,South,10.4,-,N/A,,Clear,190,2012-10-17 11:15:00
7:35 AM,58.1,49.1,72,29.51,10.0,South,11.5,-,N/A,,Clear,180,2012-10-17 11:35:00
7:55 AM,58.1,49.3,72,29.51,10.0,South,9.2,-,N/A,,Clear,180,2012-10-17 11:55:00
8:15 AM,58.1,49.1,72,29.51,10.0,South,9.2,16.1,N/A,,Clear,180,2012-10-17 12:15:00
8:35 AM,58.1,49.3,72,29.51,10.0,South,10.4,-,N/A,,Clear,180,2012-10-17 12:35:00
8:55 AM,58.1,49.1,72,29.52,10.0,South,12.7,-,N/A,,Clear,180,2012-10-17 12:55:00
9:15 AM,58.1,48.6,71,29.52,10.0,South,12.7,17.3,N/A,,Clear,190,2012-10-17 13:15:00
9:35 AM,59.4,49.1,69,29.52,10.0,South,10.4,19.6,N/A,,Clear,180,2012-10-17 13:35:00
9:55 AM,59.4,49.1,69,29.52,10.0,South,12.7,18.4,N/A,,Scattered Clouds,190,2012-10-17 13:55:00
10:15 AM,60.8,49.3,66,29.52,10.0,South,13.8,19.6,N/A,,Mostly Cloudy,180,2012-10-17 14:15:00
10:35 AM,61.0,49.1,65,29.51,10.0,South,16.1,-,N/A,,Overcast,180,2012-10-17 14:35:00
10:55 AM,62.2,48.7,61,29.51,10.0,South,13.8,21.9,N/A,,Scattered Clouds,190,2012-10-17 14:55:00
11:15 AM,60.8,48.2,63,29.52,10.0,SSW,9.2,19.6,N/A,,Clear,200,2012-10-17 15:15:00
11:35 AM,61.2,48.0,62,29.51,10.0,SSW,15.0,21.9,N/A,,Mostly Cloudy,200,2012-10-17 15:35:00
11:55 AM,60.8,47.3,61,29.51,10.0,South,17.3,25.3,N/A,,Overcast,190,2012-10-17 15:55:00
12:15 PM,62.6,48.2,59,29.51,10.0,South,13.8,28.8,N/A,,Overcast,190,2012-10-17 16:15:00
12:35 PM,63.1,47.7,57,29.50,10.0,South,15.0,23.0,N/A,,Overcast,190,2012-10-17 16:35:00
12:55 PM,63.1,47.7,57,29.50,10.0,SSW,17.3,23.0,N/A,,Mostly Cloudy,200,2012-10-17 16:55:00
1:15 PM,63.1,48.2,58,29.49,10.0,SSW,17.3,23.0,N/A,,Scattered Clouds,210,2012-10-17 17:15:00
1:35 PM,65.7,49.3,55,29.49,10.0,South,11.5,21.9,N/A,,Scattered Clouds,180,2012-10-17 17:35:00
1:55 PM,65.7,48.9,55,29.48,10.0,South,20.7,24.2,N/A,,Scattered Clouds,180,2012-10-17 17:55:00
2:15 PM,63.1,47.5,57,29.47,10.0,South,17.3,23.0,N/A,,Clear,190,2012-10-17 18:15:00
2:35 PM,63.1,47.7,57,29.47,10.0,SSE,18.4,24.2,N/A,,Scattered Clouds,160,2012-10-17 18:35:00
2:55 PM,63.1,47.3,56,29.47,10.0,South,17.3,25.3,N/A,,Mostly Cloudy,170,2012-10-17 18:55:00
3:15 PM,63.1,46.4,54,29.47,10.0,South,15.0,24.2,N/A,,Overcast,180,2012-10-17 19:15:00
3:35 PM,63.1,45.9,53,29.45,10.0,South,13.8,19.6,N/A,,Overcast,170,2012-10-17 19:35:00
3:55 PM,63.1,45.7,53,29.44,10.0,South,10.4,19.6,N/A,,Overcast,180,2012-10-17 19:55:00
4:15 PM,63.1,46.2,54,29.45,10.0,South,15.0,18.4,N/A,,Overcast,170,2012-10-17 20:15:00
4:35 PM,63.9,46.8,54,29.45,10.0,South,15.0,20.7,N/A,,Overcast,180,2012-10-17 20:35:00
4:55 PM,61.3,48.0,62,29.45,7.0,South,18.4,24.2,0.01,Rain,Light Rain,190,2012-10-17 20:55:00
5:15 PM,59.2,50.2,72,29.45,10.0,South,9.2,-,N/A,Rain,Light Rain,180,2012-10-17 21:15:00
5:35 PM,58.1,50.9,77,29.45,7.0,South,8.1,-,0.01,Rain,Light Rain,180,2012-10-17 21:35:00
5:55 PM,58.1,51.8,80,29.44,10.0,SSE,8.1,-,0.01,,Overcast,160,2012-10-17 21:55:00
6:15 PM,58.1,51.8,80,29.44,10.0,SSE,10.4,-,N/A,,Overcast,160,2012-10-17 22:15:00
6:36 PM,58.3,51.8,79,29.44,10.0,South,9.2,-,N/A,,Overcast,170,2012-10-17 22:36:00
6:55 PM,58.3,51.8,79,29.43,10.0,South,9.2,-,N/A,,Overcast,170,2012-10-17 22:55:00
7:15 PM,59.0,52.0,78,29.43,10.0,South,8.1,-,N/A,,Overcast,180,2012-10-17 23:15:00
7:36 PM,59.4,51.4,75,29.43,10.0,South,13.8,19.6,N/A,,Overcast,180,2012-10-17 23:36:00
7:55 PM,59.4,51.4,75,29.43,10.0,South,20.7,25.3,N/A,,Overcast,180,2012-10-17 23:55:00
8:15 PM,58.1,53.4,84,29.43,5.0,South,18.4,25.3,0.01,Rain,Rain,170,2012-10-18 00:15:00
8:35 PM,58.1,54.1,87,29.42,7.0,SSE,9.2,-,0.03,Rain,Rain,160,2012-10-18 00:35:00
8:55 PM,56.8,53.2,88,29.42,5.0,SSE,8.1,-,0.08,Rain,Rain,150,2012-10-18 00:55:00
9:15 PM,56.3,52.7,88,29.41,7.0,SSE,10.4,-,0.02,Rain,Light Rain,160,2012-10-18 01:15:00
9:35 PM,57.9,53.8,86,29.40,10.0,SSE,11.5,18.4,0.02,,Overcast,160,2012-10-18 01:35:00
9:55 PM,58.1,53.8,86,29.40,10.0,SSE,8.1,-,0.02,Rain,Rain,160,2012-10-18 01:55:00
10:15 PM,56.5,52.2,85,29.39,10.0,SSE,16.1,20.7,N/A,,Drizzle,160,2012-10-18 02:15:00
10:35 PM,56.3,51.8,85,29.39,10.0,SSE,15.0,21.9,N/A,,Drizzle,160,2012-10-18 02:35:00
10:55 PM,55.6,51.3,85,29.38,10.0,SE,16.1,21.9,N/A,,Light Drizzle,140,2012-10-18 02:55:00
11:15 PM,55.6,51.1,85,29.38,10.0,SSE,11.5,17.3,N/A,,Overcast,150,2012-10-18 03:15:00
11:35 PM,55.6,50.9,84,29.36,10.0,SSE,11.5,21.9,N/A,,Overcast,150,2012-10-18 03:35:00
11:55 PM,55.6,50.9,84,29.35,7.0,SE,10.4,21.9,N/A,Rain,Light Rain,140,2012-10-18 03:55:00